Hourly Weather Aljojuca

Today, 27 February, Saturday

Time Temperature Precipitation Wind Pressure Humidity
00:00 +11°C° 0 mm 0 mps 558 mmHg 82%
01:00 +10°C° 0 mm 0 mps 558 mmHg 83%
02:00 +9°C° 0 mm 0 mps 557 mmHg 84%
03:00 +9°C° 0 mm 0 mps 557 mmHg 85%
04:00 +9°C° 0 mm 0 mps 557 mmHg 85%
05:00 +8°C° 0 mm 0 mps 557 mmHg 84%
06:00 +12°C° 0 mm 1 mps 558 mmHg 74%
07:00 +14°C° 0 mm 1 mps 560 mmHg 64%
08:00 +18°C° 0 mm 1 mps 561 mmHg 54%
09:00 +20°C° 0 mm 1 mps 562 mmHg 46%
10:00 +20°C° 0 mm 2 mps 563 mmHg 39%
11:00 +23°C° 0 mm 2 mps 564 mmHg 31%
12:00 +24°C° 0 mm 2 mps 563 mmHg 30%
13:00 +25°C° 0 mm 3 mps 563 mmHg 29%
14:00 +25°C° 0 mm 3 mps 562 mmHg 28%
15:00 +24°C° 0 mm 3 mps 562 mmHg 35%
16:00 +22°C° 0 mm 3 mps 561 mmHg 41%
17:00 +20°C° 0 mm 3 mps 561 mmHg 48%
18:00 +18°C° 0 mm 2 mps 561 mmHg 55%
19:00 +17°C° 0 mm 2 mps 560 mmHg 62%
20:00 +15°C° 0 mm 1 mps 560 mmHg 70%
21:00 +14°C° 0 mm 1 mps 560 mmHg 70%
22:00 +12°C° 0 mm 0 mps 559 mmHg 70%
23:00 +12°C° 0 mm 0 mps 559 mmHg 70%

Tomorrow, 28 February, Sunday

Time Temperature Precipitation Wind Pressure Humidity
00:00 +12°C° 0 mm 1 mps 559 mmHg 71%
01:00 +12°C° 0 mm 1 mps 558 mmHg 73%
02:00 +11°C° 0 mm 1 mps 557 mmHg 75%
03:00 +11°C° 0 mm 1 mps 557 mmHg 76%
04:00 +10°C° 0 mm 1 mps 557 mmHg 78%
05:00 +10°C° 0 mm 1 mps 557 mmHg 80%
06:00 +12°C° 0 mm 1 mps 558 mmHg 70%
07:00 +15°C° 0 mm 1 mps 560 mmHg 60%
08:00 +18°C° 0 mm 1 mps 562 mmHg 50%
09:00 +20°C° 0 mm 1 mps 562 mmHg 44%
10:00 +21°C° 0 mm 2 mps 563 mmHg 38%
11:00 +24°C° 0 mm 2 mps 564 mmHg 32%
12:00 +25°C° 0 mm 3 mps 564 mmHg 31%
13:00 +25°C° 0 mm 3 mps 563 mmHg 30%
14:00 +26°C° 0 mm 4 mps 562 mmHg 29%
15:00 +23°C° 0.1 mm 4 mps 562 mmHg 33%
16:00 +22°C° 0.1 mm 4 mps 562 mmHg 38%
17:00 +21°C° 0.1 mm 4 mps 561 mmHg 42%
18:00 +19°C° 0 mm 3 mps 561 mmHg 48%
19:00 +17°C° 0 mm 2 mps 560 mmHg 55%
20:00 +15°C° 0 mm 1 mps 560 mmHg 61%
21:00 +14°C° 0 mm 1 mps 559 mmHg 61%
22:00 +14°C° 0 mm 1 mps 559 mmHg 60%
23:00 +12°C° 0 mm 0 mps 559 mmHg 60%

Day after tomorrow, 1 March, Monday

Time Temperature Precipitation Wind Pressure Humidity
00:00 +12°C° 0 mm 0 mps 558 mmHg 63%
01:00 +11°C° 0 mm 0 mps 558 mmHg 66%
02:00 +11°C° 0 mm 1 mps 557 mmHg 69%
03:00 +11°C° 0 mm 1 mps 557 mmHg 69%
04:00 +11°C° 0 mm 1 mps 557 mmHg 69%
05:00 +10°C° 0 mm 1 mps 557 mmHg 69%
06:00 +12°C° 0 mm 0 mps 559 mmHg 59%
07:00 +15°C° 0 mm 0 mps 561 mmHg 49%
08:00 +18°C° 0 mm 0 mps 563 mmHg 39%
09:00 +22°C° 0 mm 1 mps 563 mmHg 35%
10:00 +23°C° 0 mm 1 mps 564 mmHg 30%
11:00 +25°C° 0 mm 2 mps 564 mmHg 26%
12:00 +25°C° 0 mm 3 mps 564 mmHg 27%
13:00 +26°C° 0 mm 3 mps 563 mmHg 27%
14:00 +26°C° 0 mm 4 mps 563 mmHg 28%
15:00 +23°C° 0.2 mm 4 mps 562 mmHg 36%
16:00 +21°C° 0.2 mm 5 mps 562 mmHg 44%
17:00 +20°C° 0.2 mm 5 mps 561 mmHg 52%
18:00 +18°C° 0 mm 4 mps 561 mmHg 61%
19:00 +15°C° 0 mm 4 mps 561 mmHg 70%
20:00 +13°C° 0 mm 3 mps 561 mmHg 79%
21:00 +12°C° 0 mm 3 mps 560 mmHg 81%
22:00 +11°C° 0 mm 3 mps 560 mmHg 82%
23:00 +11°C° 0 mm 3 mps 560 mmHg 84%

2 March, Tuesday

Time Temperature Precipitation Wind Pressure Humidity
00:00 +10°C° 0.1 mm 3 mps 560 mmHg 85%
01:00 +10°C° 0.1 mm 3 mps 560 mmHg 87%
02:00 +10°C° 0.1 mm 3 mps 560 mmHg 88%
03:00 +9°C° 0 mm 2 mps 560 mmHg 88%
04:00 +9°C° 0 mm 2 mps 560 mmHg 88%
05:00 +9°C° 0 mm 2 mps 560 mmHg 88%
06:00 +10°C° 0.1 mm 2 mps 561 mmHg 83%
07:00 +12°C° 0.1 mm 2 mps 562 mmHg 79%
08:00 +13°C° 0.1 mm 2 mps 563 mmHg 74%
09:00 +15°C° 0 mm 2 mps 563 mmHg 68%
10:00 +16°C° 0 mm 2 mps 564 mmHg 61%
11:00 +18°C° 0 mm 2 mps 564 mmHg 54%
12:00 +18°C° 0 mm 3 mps 564 mmHg 52%
13:00 +19°C° 0 mm 3 mps 564 mmHg 49%
14:00 +20°C° 0 mm 4 mps 564 mmHg 46%
15:00 +19°C° 0 mm 3 mps 563 mmHg 51%
16:00 +17°C° 0 mm 3 mps 562 mmHg 56%
17:00 +16°C° 0 mm 3 mps 562 mmHg 61%
18:00 +15°C° 0 mm 2 mps 561 mmHg 68%
19:00 +13°C° 0 mm 2 mps 561 mmHg 75%
20:00 +10°C° 0 mm 2 mps 561 mmHg 82%
21:00 +11°C° 0 mm 1 mps 561 mmHg 79%
22:00 +11°C° 0 mm 1 mps 560 mmHg 76%
23:00 +10°C° 0 mm 1 mps 560 mmHg 73%

3 March, Wednesday

Time Temperature Precipitation Wind Pressure Humidity
00:00 +10°C° 0 mm 1 mps 560 mmHg 75%
01:00 +10°C° 0 mm 1 mps 560 mmHg 76%
02:00 +9°C° 0 mm 1 mps 559 mmHg 78%
03:00 +8°C° 0 mm 0 mps 559 mmHg 79%
04:00 +8°C° 0 mm 0 mps 559 mmHg 81%
05:00 +7°C° 0 mm 0 mps 558 mmHg 82%
06:00 +10°C° 0 mm 0 mps 560 mmHg 72%
07:00 +13°C° 0 mm 1 mps 562 mmHg 62%
08:00 +16°C° 0 mm 1 mps 564 mmHg 52%
09:00 +19°C° 0 mm 1 mps 564 mmHg 47%
10:00 +20°C° 0 mm 2 mps 565 mmHg 41%
11:00 +22°C° 0 mm 3 mps 565 mmHg 36%
12:00 +22°C° 0 mm 3 mps 565 mmHg 35%
13:00 +22°C° 0 mm 3 mps 564 mmHg 35%
14:00 +24°C° 0 mm 3 mps 564 mmHg 35%
15:00 +22°C° 0 mm 3 mps 563 mmHg 40%
16:00 +20°C° 0 mm 3 mps 563 mmHg 45%
17:00 +19°C° 0 mm 3 mps 562 mmHg 50%
18:00 +17°C° 0 mm 2 mps 562 mmHg 58%
19:00 +15°C° 0 mm 1 mps 562 mmHg 66%
20:00 +14°C° 0 mm 1 mps 561 mmHg 74%
21:00 +12°C° 0 mm 0 mps 561 mmHg 75%
22:00 +12°C° 0 mm 0 mps 561 mmHg 76%
23:00 +11°C° 0 mm 0 mps 560 mmHg 78%

4 March, Thursday

Time Temperature Precipitation Wind Pressure Humidity
00:00 +11°C° 0 mm 0 mps 560 mmHg 79%
01:00 +10°C° 0 mm 0 mps 559 mmHg 80%
02:00 +10°C° 0 mm 0 mps 559 mmHg 82%
03:00 +9°C° 0 mm 0 mps 559 mmHg 82%
04:00 +9°C° 0 mm 0 mps 558 mmHg 83%
05:00 +8°C° 0 mm 0 mps 558 mmHg 84%
06:00 +11°C° 0 mm 0 mps 559 mmHg 73%
07:00 +13°C° 0 mm 0 mps 561 mmHg 62%
08:00 +16°C° 0 mm 0 mps 563 mmHg 52%
09:00 +20°C° 0 mm 1 mps 563 mmHg 43%
10:00 +21°C° 0 mm 2 mps 564 mmHg 34%
11:00 +24°C° 0 mm 2 mps 565 mmHg 26%
12:00 +25°C° 0 mm 3 mps 564 mmHg 25%
13:00 +26°C° 0 mm 3 mps 564 mmHg 25%
14:00 +26°C° 0 mm 3 mps 564 mmHg 24%
15:00 +25°C° 0.1 mm 3 mps 563 mmHg 31%
16:00 +22°C° 0.1 mm 3 mps 562 mmHg 38%
17:00 +20°C° 0.1 mm 3 mps 561 mmHg 46%
18:00 +19°C° 0 mm 2 mps 561 mmHg 50%
19:00 +18°C° 0 mm 2 mps 561 mmHg 53%
20:00 +18°C° 0 mm 1 mps 561 mmHg 57%
21:00 +15°C° 0 mm 1 mps 560 mmHg 59%
22:00 +14°C° 0 mm 1 mps 559 mmHg 61%
23:00 +13°C° 0 mm 1 mps 559 mmHg 63%
Show more